Left ArrowRight Arrow

44.79719, -106.95618

Hourly Observations for January 1, 2020

Temp ( °F °C ) Dew Point ( °F °C ) Humidity (%) Winds ( mph kmh ) Pressure ( in mb ) Visibility ( mi km ) Precip ( " mm )
12:53 am 00:53 Mostly Cloudy 42 5.6 25 -3.9 51 51 W 6 9 29.46 998 10 16 0.00 0.00
1:53 am 01:53 Mostly Cloudy 47 8.3 26 -3.3 44 44 WSW 16 26 29.39 995 10 16 0.00 0.00
2:53 am 02:53 Cloudy 45 7.2 26 -3.3 48 48 WSW 5 7 29.37 995 10 16 0.00 0.00
3:53 am 03:53 Cloudy 44 6.7 26 -3.3 49 49 W 5 7 29.38 995 10 16 0.00 0.00
4:53 am 04:53 Mostly Cloudy 36 2.2 26 -3.3 67 67 W 5 7 29.41 996 10 16 0.00 0.00
5:53 am 05:53 Partly Cloudy 42 5.6 23 -5 47 47 Calm 29.40 996 10 16 0.00 0.00
6:53 am 06:53 Mostly Clear 43 6.1 22 -5.6 43 43 WSW 9 15 29.38 995 10 16 0.00 0.00
7:53 am 07:53 Mostly Cloudy 45 7.2 21 -6.1 39 39 WSW 14 22 29.37 995 10 16 0.00 0.00
8:53 am 08:53 Mostly Sunny 47 8.3 20 -6.7 34 34 W 22 35 29.36 994 10 16 0.00 0.00
9:53 am 09:53 Sunny 48 8.9 18 -7.8 30 30 W 24 39 29.35 994 10 16 0.00 0.00
10:53 am 10:53 Partly Cloudy 50 10 17 -8.3 27 27 W 22 35 29.34 993 10 16 0.00 0.00
11:53 am 11:53 Mostly Cloudy 50 10 17 -8.3 27 27 W 20 31 29.32 993 10 16 0.00 0.00
12:53 pm 12:53 Cloudy 52 11.1 19 -7.2 27 27 W 24 39 29.29 992 10 16 0.00 0.00
1:53 pm 13:53 Sunny 50 10 20 -6.7 30 30 W 23 37 29.25 991 10 16 0.00 0.00
2:53 pm 14:53 Sunny 46 7.8 20 -6.7 35 35 W 20 31 29.29 992 10 16 0.00 0.00
3:53 pm 15:53 Mostly Sunny 45 7.2 20 -6.7 37 37 WNW 10 17 29.32 993 10 16 0.00 0.00
4:53 pm 16:53 Cloudy 43 6.1 22 -5.6 43 43 W 12 19 29.38 995 10 16 0.00 0.00
5:53 pm 17:53 Mostly Clear 43 6.1 21 -6.1 42 42 NW 17 28 29.38 995 10 16 0.00 0.00
6:53 pm 18:53 Cloudy 40 4.4 28 -2.2 63 63 NNW 20 31 29.43 997 10 16 0.00 0.00
7:53 pm 19:53 Mostly Cloudy 37 2.8 30 -1.1 76 76 NW 26 43 29.44 997 10 16 0.00 0.00
8:53 pm 20:53 Cloudy 37 2.8 31 -0.6 79 79 NW 24 39 29.47 998 10 16 0.00 0.00
9:53 pm 21:53 Cloudy 37 2.8 31 -0.6 79 79 NW 21 33 29.49 999 10 16 0.00 0.00
10:53 pm 22:53 Cloudy with Light Wintry Mix 34 1.1 31 -0.6 89 89 NW 14 22 29.53 1000 10 16 0.00 0.00
11:19 pm 23:19 Cloudy with Light Snow 34 1.1 31 -0.6 89 89 NW 13 20 29.61 1003 4 6 0.00 0.00
11:53 pm 23:53 Cloudy with Light Snow 34 1.1 31 -0.6 89 89 NW 12 19 29.54 1001 8 13 0.00 0.00

Powered by Vaisala Xweather